User: anonymous   Login
Location: Poprad
(49.0500°N, 20.3000°E)
Time: 23:58:14
(UTC+02:00)
Language:

DIWATA 2B (PO-101) - Orbit

View from above orbital plane
View from above orbital plane
View from above satellite
View from above satellite

Ground track
Ground track

The orbit data is extracted from the following two-line orbital elements,

1 43678U 18084H   24115.46787573  .00004166  00000-0  38650-3 0  9991
2 43678  98.0655 271.9152 0008573 201.1198 158.9668 14.94981860298894
Epoch (UTC): 24 April 2024 11:13:44
Eccentricity: 0.0008573
inclination: 98.0655°
perigee height: 576 km
apogee height: 588 km
right ascension of ascending node: 271.9152°
argument of perigee: 201.1198°
revolutions per day: 14.94981860
mean anomaly at epoch: 158.9668°
orbit number at epoch: 29889

The dashed part of the orbit path shows where the satellite is in the earth's shadow,  

DLR